map of JUB home
Great Circle Mapper logo
JUB - Airport
Location
City:  Juba, South Sudan
Near (Alt.):Djouba
Name:Juba International Airport
ICAO / IATA:HSSJ / JUB

Details
Type:Airport (Aerodrome, Airfield)
Use:International (customs port of entry)
Latitude:452'19"N (4.872006)
Longitude:3136'04"E (31.601117)
Datum:WGS 1984
Elevation:1513 ft (461 m)
Variation:2.22E (WMM2015 magnetic declination)
0.08 annual change
Runways:1
Longest:7874 × 148 ft (2400 × 45 m), paved

Time
Time Zone:UTC+3
Local Time:

Weather
METAR:HSSJ 021400Z 32002KT 9999 FEW040 33/17 Q1010
TAF:HSSJ 030400Z 0306/0412 09003KT 9999 SCT030 BKN120 PROB030
TEMPO 0312/0318 18008G18KT 6000 TSRA FEW045CB BKN120
TEMPO 0318/0324 07005KT 9999 SCT040 BKN140

Related Locations
Nearby:
Farthest:NHV: 11824 mi / 19028 km
Nuku Hiva, Marquesas Islands, PF

Find:

   beyond  
but within

Other Information
Maps:
NOTAMs:
Links:
Sources:

  
flag of South Sudan   

Sectional Chart

Flight Planning
at skyvector.com

Satellite Image

Google Maps Satellite view

 

Copyright © 2004-2015 Karl L. Swartz. All rights reserved.
The Great Circle Mapper name and logo are trademarks of the Great Circle Mapper.
All other trademarks mentioned herein belong to their respective owners.
Please see credits for attibutions and further copyright information.

  Follow gcmap on Facebook Follow gcmap on Twitter Follow gcmap on Google+

hCard Microformat

Geo Microformat